Temp
-16 -16 -16 -15 -16 -16 -16 -16 -16 -17 -17 -17 -17 -17 -18 -18 -17 -17 -18 -18 -18 -18 -18 -19 -19 -19 -19 -20 -20 -21 -21 -22 -22 -22 -22 -23 -23 -24
-16 -16 -16 -16 -16 -16 -16 -17 -17 -17 -17 -17 -17 -18 -18 -18 -18 -18 -18 -18 -18 -19 -19 -19 -19 -19 -20 -20 -20 -21 -21 -21 -22 -23 -23 -23 -24 -24
-16 -16 -16 -16 -16 -16 -16 -17 -18 -18 -17 -17 -17 -17 -18 -18 -18 -18 -18 -18 -19 -19 -19 -19 -20 -20 -20 -21 -21 -21 -21 -22 -23 -23 -23 -24 -24 -25
-16 -15 -16 -16 -16 -16 -17 -17 -17 -17 -17 -17 -18 -18 -18 -18 -18 -18 -19 -19 -19 -19 -20 -20 -21 -21 -21 -21 -21 -21 -22 -23 -23 -23 -24 -24 -24 -25
-16 -16 -16 -16 -16 -17 -17 -17 -17 -17 -17 -18 -18 -18 -18 -19 -19 -19 -19 -19 -19 -20 -21 -21 -21 -21 -21 -21 -22 -22 -23 -23 -24 -24 -24 -24 -25 -27
-16 -16 -16 -17 -17 -18 -17 -17 -17 -17 -18 -18 -18 -18 -19 -19 -19 -19 -19 -19 -20 -21 -21 -21 -21 -21 -22 -22 -23 -24 -24 -24 -24 -24 -25 -25 -26 -29
-16 -16 -17 -17 -17 -17 -17 -17 -18 -18 -18 -18 -18 -19 -19 -19 -19 -19 -19 -20 -21 -21 -21 -21 -22 -22 -23 -23 -24 -24 -24 -24 -24 -24 -25 -25 -27 -30
-17 -17 -17 -17 -17 -17 -17 -18 -18 -18 -18 -19 -19 -19 -19 -19 -19 -20 -20 -21 -21 -21 -21 -22 -22 -22 -22 -23 -23 -24 -24 -24 -24 -25 -26 -27 -30 -32
-17 -16 -17 -17 -17 -18 -18 -18 -18 -18 -18 -19 -19 -19 -20 -20 -20 -21 -21 -21 -21 -21 -21 -21 -22 -21 -22 -23 -24 -24 -24 -24 -25 -26 -27 -29 -31 -32
-16 -17 -17 -17 -18 -18 -18 -18 -18 -18 -19 -19 -20 -20 -20 -20 -21 -21 -20 -20 -21 -22 -22 -21 -22 -22 -22 -23 -24 -25 -24 -25 -26 -27 -29 -30 -31 -34
-17 -17 -18 -17 -18 -18 -18 -18 -19 -19 -20 -20 -21 -21 -20 -21 -21 -21 -21 -21 -21 -22 -23 -22 -22 -23 -23 -24 -25 -25 -26 -26 -27 -29 -30 -31 -34 -36
-17 -17 -17 -18 -18 -18 -19 -19 -20 -20 -20 -21 -21 -21 -21 -21 -21 -21 -21 -21 -22 -22 -23 -22 -23 -24 -23 -25 -26 -26 -27 -28 -29 -30 -31 -33 -36 -37
-18 -18 -18 -18 -18 -19 -20 -20 -20 -21 -21 -21 -21 -20 -21 -21 -21 -21 -21 -22 -22 -23 -25 -24 -25 -26 -26 -27 -27 -28 -29 -30 -31 -32 -33 -35 -37 -37
-18 -18 -18 -18 -19 -19 -20 -21 -21 -21 -21 -20 -20 -21 -21 -21 -21 -22 -22 -23 -24 -25 -26 -26 -26 -27 -28 -28 -29 -30 -31 -31 -32 -33 -35 -37 -37 -37
-18 -18 -19 -19 -20 -20 -20 -20 -21 -21 -20 -21 -21 -21 -21 -22 -22 -23 -23 -24 -25 -26 -27 -28 -28 -28 -29 -30 -31 -31 -32 -32 -34 -35 -36 -38 -38 -37
-19 -19 -19 -20 -20 -20 -20 -21 -21 -21 -21 -21 -21 -21 -22 -22 -23 -23 -24 -25 -25 -27 -28 -29 -30 -30 -31 -31 -32 -32 -32 -33 -35 -36 -37 -38 -37 -37
-19 -19 -20 -20 -20 -20 -21 -21 -21 -21 -21 -21 -21 -22 -22 -22 -23 -24 -24 -25 -26 -27 -28 -30 -31 -31 -32 -32 -33 -33 -34 -35 -36 -37 -38 -38 -38 -37
-20 -20 -20 -20 -20 -20 -21 -21 -21 -21 -21 -21 -22 -22 -23 -23 -24 -25 -26 -27 -28 -28 -29 -31 -31 -32 -33 -33 -34 -35 -35 -37 -37 -38 -38 -38 -38 -38
-20 -20 -20 -20 -20 -21 -21 -20 -21 -21 -22 -22 -23 -23 -23 -24 -25 -26 -27 -28 -28 -29 -31 -32 -32 -33 -33 -34 -34 -35 -36 -38 -38 -38 -39 -38 -38 -38
-21 -21 -21 -21 -21 -21 -21 -21 -22 -22 -22 -23 -23 -24 -25 -26 -27 -28 -28 -29 -30 -31 -32 -33 -33 -33 -34 -35 -35 -36 -37 -39 -39 -39 -39 -39 -38 -38
-21 -21 -21 -21 -21 -22 -22 -22 -22 -23 -23 -24 -25 -26 -27 -27 -28 -29 -30 -30 -31 -32 -32 -33 -34 -34 -35 -35 -36 -38 -39 -39 -39 -39 -39 -39 -38 -38
-21 -21 -21 -22 -22 -22 -22 -23 -23 -24 -25 -26 -26 -27 -28 -29 -29 -30 -31 -32 -32 -33 -33 -34 -35 -35 -35 -36 -38 -39 -39 -39 -39 -39 -39 -39 -38 -38
-22 -22 -22 -22 -23 -23 -24 -25 -25 -26 -27 -27 -28 -29 -30 -31 -31 -32 -32 -33 -33 -34 -34 -35 -35 -36 -37 -38 -39 -39 -39 -39 -39 -39 -39 -39 -38 -38
Height
5736 5737 5736 5735 5735 5732 5729 5728 5726 5725 5724 5721 5717 5713 5710 5706 5703 5699 5695 5690 5684 5678 5671 5665 5659 5653 5646 5639 5632 5624 5615 5607 5599 5590 5582 5573 5561 5548
5728 5728 5727 5726 5725 5723 5720 5718 5716 5715 5713 5710 5706 5702 5699 5695 5691 5686 5681 5675 5669 5662 5657 5651 5644 5636 5630 5622 5614 5606 5597 5588 5579 5570 5560 5550 5538 5523
5719 5719 5719 5717 5715 5713 5711 5709 5706 5705 5702 5699 5696 5692 5688 5683 5677 5672 5667 5661 5654 5647 5641 5633 5627 5620 5612 5604 5596 5587 5577 5569 5560 5551 5540 5529 5517 5502
5709 5704 5707 5705 5704 5702 5699 5699 5697 5694 5689 5686 5683 5679 5674 5669 5664 5658 5651 5645 5638 5631 5624 5617 5610 5601 5593 5585 5576 5566 5558 5548 5539 5529 5520 5510 5498 5481
5700 5699 5697 5695 5693 5691 5689 5687 5683 5681 5677 5674 5670 5667 5661 5656 5650 5644 5636 5628 5621 5614 5607 5600 5591 5583 5574 5564 5553 5545 5535 5525 5517 5508 5498 5485 5471 5455
5688 5687 5686 5684 5682 5681 5678 5675 5671 5667 5664 5661 5657 5653 5648 5641 5636 5628 5620 5612 5604 5594 5588 5580 5572 5562 5552 5542 5532 5522 5514 5506 5496 5485 5471 5456 5442 5428
5677 5676 5675 5674 5671 5669 5666 5663 5660 5656 5653 5648 5644 5639 5632 5626 5619 5612 5605 5596 5587 5578 5572 5561 5553 5542 5531 5523 5514 5504 5495 5485 5473 5460 5446 5430 5418 5407
5669 5667 5665 5663 5660 5658 5654 5650 5645 5641 5636 5632 5627 5621 5615 5608 5601 5594 5586 5579 5572 5562 5554 5547 5533 5525 5514 5503 5493 5484 5473 5461 5449 5436 5420 5405 5396 5390
5657 5655 5653 5650 5647 5644 5639 5635 5630 5625 5621 5615 5610 5604 5596 5590 5584 5576 5568 5560 5551 5541 5535 5531 5514 5509 5497 5485 5472 5461 5453 5442 5428 5413 5397 5385 5376 5373
5645 5642 5640 5636 5632 5628 5623 5618 5614 5609 5603 5598 5592 5585 5578 5571 5564 5556 5549 5540 5530 5518 5509 5510 5495 5490 5479 5465 5451 5441 5431 5421 5407 5392 5379 5367 5358 5356
5631 5628 5625 5621 5616 5612 5607 5602 5596 5592 5586 5579 5572 5565 5558 5551 5544 5536 5528 5519 5510 5498 5486 5480 5473 5466 5461 5447 5431 5418 5406 5395 5383 5370 5361 5353 5346 5344
5618 5615 5612 5606 5600 5595 5590 5584 5579 5573 5566 5559 5552 5545 5538 5530 5522 5514 5505 5497 5486 5478 5463 5461 5449 5432 5438 5429 5410 5397 5384 5371 5362 5352 5344 5338 5336 5336
5600 5599 5595 5589 5583 5577 5572 5566 5560 5554 5547 5540 5532 5524 5516 5507 5498 5490 5482 5474 5465 5452 5438 5430 5430 5416 5401 5397 5393 5373 5362 5352 5344 5335 5328 5325 5325 5326
5588 5582 5576 5571 5565 5559 5553 5547 5540 5534 5527 5519 5511 5503 5494 5485 5476 5467 5458 5450 5441 5430 5418 5405 5403 5392 5383 5373 5362 5356 5345 5337 5328 5322 5318 5317 5316 5316
5567 5562 5557 5552 5546 5540 5534 5528 5521 5513 5506 5498 5490 5481 5472 5464 5454 5446 5437 5429 5421 5408 5395 5383 5376 5372 5360 5352 5345 5337 5330 5323 5317 5312 5310 5309 5308 5307
5548 5543 5538 5533 5527 5521 5515 5508 5501 5494 5485 5477 5468 5460 5451 5443 5434 5425 5418 5410 5403 5391 5377 5363 5352 5347 5343 5333 5325 5321 5317 5312 5305 5304 5303 5301 5299 5298
5530 5524 5518 5513 5507 5501 5494 5487 5479 5472 5464 5455 5446 5438 5430 5422 5412 5403 5395 5387 5381 5374 5364 5347 5334 5326 5323 5317 5311 5303 5300 5299 5296 5295 5295 5294 5292 5291
5510 5505 5499 5493 5486 5480 5473 5465 5457 5449 5440 5431 5423 5415 5407 5399 5390 5380 5371 5364 5356 5348 5340 5330 5320 5311 5304 5302 5297 5292 5288 5287 5287 5287 5287 5286 5285 5286
5489 5484 5478 5471 5464 5458 5450 5442 5432 5424 5416 5408 5400 5391 5382 5374 5366 5356 5347 5339 5331 5323 5316 5308 5302 5296 5292 5288 5285 5280 5278 5277 5279 5279 5279 5279 5278 5279
5468 5461 5454 5447 5441 5433 5425 5417 5408 5401 5392 5384 5375 5365 5356 5347 5338 5329 5321 5313 5306 5301 5295 5285 5281 5278 5274 5271 5269 5269 5268 5269 5270 5271 5271 5272 5272 5273
5444 5437 5431 5424 5416 5408 5400 5392 5384 5375 5366 5357 5347 5337 5328 5319 5311 5302 5295 5288 5283 5278 5275 5268 5261 5260 5259 5257 5256 5257 5259 5260 5261 5262 5263 5264 5265 5266
5422 5415 5408 5400 5392 5384 5376 5367 5358 5348 5338 5328 5318 5308 5297 5289 5281 5274 5267 5262 5257 5253 5250 5247 5243 5242 5242 5242 5245 5248 5250 5251 5252 5254 5255 5257 5259 5260
5399 5392 5384 5376 5368 5359 5349 5339 5329 5318 5308 5298 5289 5278 5269 5260 5251 5246 5242 5237 5233 5229 5227 5226 5223 5224 5227 5230 5235 5240 5242 5244 5246 5247 5248 5251 5253 5255
Wind_Speed
31 38 44 37 43 44 37 39 39 38 41 40 43 43 42 44 47 51 53 56 56 58 59 61 63 64 63 65 68 69 70 72 75 77 80 84 87 92
36 39 37 42 44 42 37 37 39 43 43 43 44 44 45 49 51 53 56 59 60 61 61 63 63 64 67 70 70 69 71 75 77 80 82 85 90 94
38 40 36 49 50 46 42 42 42 45 46 45 46 47 49 52 53 57 60 63 62 62 63 65 66 67 70 72 71 73 77 78 79 81 83 87 91 93
38 44 42 47 45 43 43 44 45 46 46 47 48 49 51 54 57 61 63 62 64 66 66 66 68 70 72 75 77 79 79 79 80 83 86 90 93 93
45 47 39 42 44 44 43 46 48 47 48 50 51 53 54 55 60 62 65 67 68 68 69 71 73 74 78 78 79 79 79 81 83 85 89 93 96 87
48 43 42 43 44 45 47 49 51 53 52 54 54 56 57 61 64 66 69 70 69 70 69 72 76 78 79 80 79 79 80 82 84 90 95 97 94 74
38 44 43 43 44 47 50 53 54 55 55 56 58 59 61 64 68 70 74 68 67 70 73 76 78 79 80 80 78 80 84 86 90 95 98 96 83 66
37 40 43 46 48 51 55 55 56 57 57 58 60 62 66 69 71 75 72 69 73 76 78 79 81 82 84 84 84 86 88 91 95 97 95 85 71 59
44 44 46 48 52 56 56 56 56 57 58 61 64 67 68 71 75 76 72 76 79 81 83 82 84 85 86 85 86 88 92 95 97 96 87 74 66 54
46 47 50 54 56 56 57 59 59 60 63 65 67 69 73 76 73 74 79 81 83 84 85 83 86 85 85 86 88 91 96 97 95 86 74 65 60 44
48 49 54 61 58 58 59 61 61 63 66 68 71 75 73 73 77 81 84 86 86 85 85 87 86 86 85 88 90 94 97 96 86 73 63 55 42 37
51 49 62 61 59 60 62 63 65 67 69 72 72 75 78 81 83 85 86 86 88 88 86 86 87 90 90 88 92 95 93 85 71 61 55 42 30 33
45 61 59 60 62 63 65 66 69 72 75 74 76 80 82 85 87 88 89 89 87 85 86 88 87 89 93 93 90 88 81 70 62 55 42 27 27 34
61 62 63 64 65 66 68 71 75 75 76 77 82 85 87 88 90 90 89 86 85 84 85 89 90 90 93 91 85 74 68 60 53 43 27 25 28 28
63 64 65 67 69 70 74 76 74 76 78 82 85 87 88 90 89 88 85 85 85 85 87 88 90 91 90 81 72 65 61 53 42 31 23 22 27 29
65 66 69 71 74 75 75 74 76 79 83 86 88 89 91 91 88 86 87 87 88 87 88 90 91 90 79 71 67 61 55 46 34 27 18 18 22 22
68 70 72 74 75 77 76 76 81 86 89 91 91 90 88 87 88 89 90 92 91 90 89 90 87 81 72 65 60 56 49 40 27 20 15 16 18 16
69 69 71 73 76 76 78 85 86 89 91 90 87 87 89 90 91 93 94 94 93 93 91 83 76 71 66 61 55 47 40 33 25 20 18 19 20 15
68 70 70 72 75 81 86 89 90 90 86 86 89 91 93 95 96 96 97 97 97 93 85 78 71 66 60 55 50 40 36 30 25 21 21 20 21 16
71 74 77 80 83 86 86 84 83 86 89 92 95 97 99 99 99 100 99 96 90 83 74 70 66 61 54 46 41 35 30 25 22 24 25 24 20 18
79 82 85 84 83 82 83 86 90 93 96 98 100 101 102 102 100 98 95 90 83 77 71 66 62 53 48 42 32 26 27 29 30 30 29 20 19 18
82 83 83 84 85 87 90 93 96 98 100 102 103 103 102 100 96 90 86 81 78 73 67 60 56 47 41 34 25 22 20 21 24 22 20 18 18 16
84 84 86 88 91 93 95 98 100 102 103 103 101 99 95 91 89 87 84 80 74 68 64 56 48 42 33 27 26 24 17 16 16 17 18 18 18 15
Wind_Direction
259 265 269 275 280 275 270 262 272 286 283 283 283 283 287 290 293 296 299 301 302 302 301 300 300 299 299 299 297 298 297 298 299 301 301 304 305 307
261 261 265 274 276 281 286 278 281 283 284 283 283 285 288 291 295 299 301 302 304 302 300 300 300 300 301 303 301 300 301 301 301 302 303 305 307 309
261 261 267 279 278 276 277 279 281 284 285 284 284 285 290 292 297 299 301 304 304 302 301 301 300 301 304 305 304 304 303 301 301 302 305 307 309 309
267 259 268 269 269 276 286 282 281 283 283 285 285 286 290 295 299 303 305 305 304 300 299 300 303 306 306 306 306 303 303 302 302 305 307 309 309 309
260 264 268 270 275 279 283 281 283 285 285 285 286 288 293 296 299 303 305 304 302 300 300 302 304 305 306 306 304 304 304 305 305 305 308 310 311 307
253 262 268 276 280 281 282 286 288 288 287 287 289 292 294 296 298 301 305 305 302 301 302 303 304 307 305 306 306 305 303 303 306 309 311 312 311 304
263 271 276 277 282 285 288 288 288 288 287 288 290 292 294 295 298 301 304 302 302 302 303 304 306 306 305 306 304 303 304 307 309 311 313 313 309 301
273 277 278 283 284 288 288 286 287 286 288 290 292 293 294 295 298 301 303 303 300 303 303 305 305 306 307 306 304 304 306 309 311 313 314 310 305 300
276 277 278 281 284 284 283 285 289 290 290 291 292 294 295 296 300 301 299 301 303 303 303 305 304 306 305 304 304 306 308 310 313 314 312 306 302 296
278 278 282 285 287 287 286 288 290 292 292 292 293 295 297 300 300 299 301 302 303 302 303 304 303 304 304 305 306 307 309 313 315 314 309 303 298 288
280 286 282 287 286 286 288 291 292 293 294 296 297 298 301 300 300 302 302 302 303 302 302 303 303 303 305 306 307 309 312 315 316 311 306 300 286 272
281 274 272 281 285 287 289 290 292 294 296 298 298 301 301 302 302 302 303 302 302 302 301 303 304 304 305 307 309 312 315 316 313 309 306 294 265 257
277 277 283 284 286 288 290 292 294 294 295 298 298 299 301 301 302 302 301 302 302 302 301 302 304 305 307 310 312 315 315 314 312 310 300 275 259 260
275 283 285 287 289 290 291 290 291 295 296 297 298 300 300 301 301 301 301 302 302 302 301 302 305 306 309 313 316 314 313 313 312 306 282 254 260 273
282 284 287 288 289 289 288 292 294 295 296 297 298 298 299 299 299 300 301 301 301 302 302 304 305 308 312 315 313 312 312 312 307 291 274 267 269 272
284 286 288 287 285 288 291 292 293 295 296 297 298 297 297 298 300 300 300 300 301 301 302 305 307 310 313 311 311 311 310 308 299 276 267 277 277 272
286 285 285 288 289 288 288 290 293 297 296 296 296 297 298 299 298 299 299 299 299 300 303 305 309 309 309 308 309 307 307 303 290 259 255 284 290 274
285 287 287 287 288 287 288 294 295 296 297 296 297 297 298 298 298 297 297 298 299 301 304 306 304 304 306 306 304 303 298 289 278 256 262 278 296 270
278 283 286 286 287 289 292 294 295 296 296 297 297 297 297 296 296 296 297 299 301 303 304 303 303 302 302 302 299 292 280 274 264 254 261 274 288 260
281 283 286 288 290 293 293 294 295 296 297 297 297 296 295 296 296 297 299 300 300 301 301 300 300 299 298 295 291 284 272 260 254 256 267 282 267 250
290 291 292 294 294 295 296 297 297 297 296 295 295 295 295 296 297 297 298 298 299 299 299 297 296 295 294 288 278 256 254 255 258 265 274 266 246 244
291 292 293 294 295 296 296 296 295 295 294 294 294 295 296 296 296 297 296 297 296 296 295 294 291 289 283 277 249 231 246 254 256 256 257 246 235 243
293 293 293 294 293 294 294 294 294 294 295 296 297 297 297 297 296 296 296 295 295 294 293 290 284 277 269 246 219 221 243 237 244 248 242 232 234 242